KBFIKPWT

Guest
Details From KBFI - Boeing Field King Co Intl
To KPWT - Bremerton National
Flight Number -
Tags Routegen
Created
Modified
Stats Distance 19 nm / 35 km
Max Altitude 0 ft / 0 m
Waypoints 2
Social Downloads 2
Likes 0
Share VATSIM

Download

Looking for another format? Having issues loading an existing format? Contact us
Advertisement - Login to hide

Notes

None

Route

KBFI KPWT

ID Type Via Altitude (ft/m) Position (lat/lon) Dist (leg/tot) Name
O KBFI APT - 0 / 0 47.53802 / -122.30746 - / 0 nm
O KPWT APT - 0 / 0 47.48333 / -122.77138 19 / 19 nm

Altitude Profile

Advertisement - Login to hide

KBFI

Details ICAO KBFI (BFI)
Name Boeing Field King Co Intl
Region United States
Timezone America/Los_Angeles (UTC-8.0)
Stats Elevation 20 ft / 6 m (AMSL)
Location 47.531100° -122.303000°
Runways 2
Magnetic Variation 15.404° E

METAR

KBFI 201753Z 09003KT 10SM BKN040 OVC070 09/05 A2995 RMK AO2 RAB33E48 SLP142 P0000 60000 T00890050 10106 20072 58004

Decode

TAF

KBFI 201729Z 2018/2118 VRB03KT P6SM VCSH OVC045 TEMPO 2018/2020 6SM -RA BR FM202200 17005KT P6SM BKN060 FM210200 15004KT P6SM OVC050 FM211000 12004KT 6SM -RA OVC035 FM211600 16010G18KT 6SM -SHRA BR OVC025

Decode

Departure Runways

ID Width Length Bearing (true/mag) Surface Threshold Overrun Markings Lighting
14L 100 ft / 30 m 3,708 ft / 1,130 m 150.28° / 134.87° ASPHALT 239 ft / 73 m 0 ft / 0 m APP EDGE THRESHOLD REIL-OMNI
14R 200 ft / 61 m 9,997 ft / 3,047 m 150.27° / 134.87° ASPHALT 0 ft / 0 m 896 ft / 273 m PREC-APP EDGE THRESHOLD MALS
32L 200 ft / 61 m 9,997 ft / 3,047 m 330.29° / 314.88° ASPHALT 879 ft / 268 m 151 ft / 46 m PREC-APP EDGE THRESHOLD REIL-OMNI
32R 100 ft / 30 m 3,708 ft / 1,130 m 330.29° / 314.88° ASPHALT 364 ft / 111 m 0 ft / 0 m APP EDGE THRESHOLD REIL-OMNI

KPWT

Details ICAO KPWT (PWT)
Name Bremerton National
Region United States
Timezone America/Los_Angeles (UTC-8.0)
Stats Elevation 444 ft / 135 m (AMSL)
Location 47.490200° -122.765000°
Runways 1
Magnetic Variation 15.477° E

METAR

KPWT 201811Z AUTO 00000KT 10SM SCT030 OVC039 07/06 A2995 RMK AO2

Decode

TAF

TAF KPWT 201729Z 2018/2118 VRB04KT P6SM VCSH SCT020 OVC035 TEMPO 2018/2020 6SM -RA BR FM202200 19006KT P6SM BKN040 FM210300 VRB05KT P6SM OVC050 FM210900 18005KT 5SM -RA BR OVC025 FM211500 19012G20KT 4SM -SHRA BR OVC018

Decode

Destination Runways

ID Width Length Bearing (true/mag) Surface Threshold Overrun Markings Lighting
01 151 ft / 46 m 5,997 ft / 1,828 m 32.69° / 17.21° ASPHALT 0 ft / 0 m 0 ft / 0 m APP EDGE THRESHOLD
19 151 ft / 46 m 5,997 ft / 1,828 m 212.70° / 197.22° ASPHALT 0 ft / 0 m 1,243 ft / 379 m PREC-APP EDGE THRESHOLD MALSR

Approach Navaids

Runway Type Ident Frequency Range Bearing (true/mag) Slope Elevation
19 LOC-ILS IPWT 111.10 MHz 18 nm / 33 km 212.69° / 197.21 ° - 444 ft / 135 m (AMSL)
19 GS IPWT 111.10 MHz 10 nm / 19 km 213.38° / 197.91 ° 3.00° 436 ft / 133 m (AMSL)
19 OM OM - - 212.69° / 197.21 ° - 444 ft / 135 m (AMSL)

Popular Alternatives